CZ-6A DEB, 56614

Orbit data source: Space-Track

CZ-6A DEB, 56614 is space debris in SSO originally from a launch on Fri, 11 Nov 2022 UTC launched from the Taiyaun Space Center, China (TSC). Debris objects in space refer to the collection of defunct objects orbiting the Earth. Examples of debris include non-operational satellites, rocket bodies, and fragments generated from explosions, collisions, or faulty payload assembly.

Loading next visibility...
Identifier
56614, 2022-151AEN
Orbit
SSO
Country
Flag of CNCN / PRC
Related business
Manufacturer
SAST
Mission
Spacecraft
Bus & Motor
Unknown
Mass
Unknown
Launch date (UTC)
2022-11-11 (4 years ago)
Launch vehicle
Unknown
Launch site
Taiyaun Space Center, China (TSC)
Object type
Payload
Rocket body
Debris
Shape & HBR
Unknown shape, 0.1 m
Radar Cross Section
Small (<0.1 m²)

Expand to show TLE details & history
Last TLE update: 3 days ago

TLE from 3 days ago
0 CZ-6A DEB
1 56614U 22151AEN 26204.12033598  .00000644  00000-0  47295-3 0  9992
2 56614  98.8618 167.0594 0116028 317.6947  41.5311 13.96129303165184
Epoch: 2026-07-23T02:53Z
TLE epoch observation values (Epoch: 2026-07-23T02:53:17.028Z)
Latitude
0.00006°
Longitude
-177.12744°
Altitude
847.252 km
Speed
7.461 km/s
True Right ascension
11h 08m 14s
True Declination
0° 00' 00"
Sunlit
Object was in daylight at epoch
Visualization orbit readout
Latitude
Unknown
Longitude
Unknown
Altitude
Unknown
Speed
Unknown
Apparent Right ascension
Unknown
Apparent Declination
Unknown
Sunlit
N/A
Visualization observer readout
Local Sidereal Time
23:03:52
Azimuth
Unknown
Elevation
Unknown
Doppler factor
Unknown
Orbital elements
Apogee altitude
988.925 km
Perigee altitude
819.929 km
Semi-major axis
7,282.564 km
Eccentricity
0.0116
Inclination
98.8618°
RAAN
167.0594°
Arg. of periapsis
317.6947°
True anomaly
42.42228°
Mean anomaly
41.5311°
Eccentric anomaly
41.97572°
Mean motion
3.49234 °/min
Orbital period
103.08 mins
BSTAR
0.00047295
Loading maneuver chart data...
Computing Atmospheric mass density...

Documentation

Showing up to 5 results
|